Location: Bergen
(60.3910°N, 5.3250°E)
Time: 20:30:45
(UTC+02:00)

ISS - Pass Details

Date: 26 March 2019
Orbit: 408 x 410 km, 51.6° (Epoch: 22 April)

Event Time Altitude Azimuth Distance (km) Brightness Sun altitude
Rises 20:59:05 0° 235° (SW) 2,336 0.4 -13.8°
Reaches altitude 10° 21:01:37 10° 215° (SW) 1,475 -0.9 -14.1°
Enters shadow 21:03:47 17° 174° (S) 1,110 -2.0 -14.3°
